Location: Piedmont
(45.8748°N, 74.1254°W)
Time: 17:31:18
(UTC+00:00)

X-37B - Pass Details

Date: 07 December 2021
Orbit: 334 x 337 km, 45.0° (Epoch: 11 January)

Event Time Altitude Azimuth Distance (km) Brightness Sun altitude
Rises 23:19:30 0° 236° (WSW) 2,097 5.5 -21.4°
Reaches altitude 10° 23:21:35 10° 227° (SW) 1,263 4.0 -21.7°
Enters shadow 23:22:58 23° 208° (SSW) 776 2.5 -22.0°
